Location: Dammartin
(48.9032°N, 1.6195°E)
Time: 09:34:37
(UTC+00:00)

Lacrosse 5 - Pass Details

Date: 03 February 2023
Orbit: 714 x 724 km, 57.0° (Epoch: 09 March)

Event Time Altitude Azimuth Distance (km) Brightness Sun altitude
Rises 18:25:30 0° 228° (SW) 3,126 6.1 -15.3°
Reaches altitude 10° 18:27:53 10° 227° (SW) 2,209 5.2 -15.6°
Maximum altitude 18:32:58 78° 141° (SE) 744 1.8 -16.5°
Enters shadow 18:35:50 27° 59° (ENE) 1,390 2.8 -16.9°
